Weather History for KBHK - November, 2011

Change the Weather History Date:

Wednesday, November 16, 2011

  Actual Average Record
Temperature  
Mean Temperature 22 °F -  
Max Temperature 33 °F 22 °F 66 °F (2001)
Min Temperature 12 °F -6 °F -4 °F (2000)
Degree Days  
Heating Degree Days 42    
Moisture  
Dew Point 6 °F    
Average Humidity 56    
Maximum Humidity 77    
Minimum Humidity 28    
Precipitation  
Precipitation 0.00 in - - ()
Sea Level Pressure  
Sea Level Pressure 30.23 in    
Wind  
Wind Speed 11 mph (West)    
Max Wind Speed 20 mph    
Max Gust Speed 31 mph    
Visibility 10 miles    
Events      
Averages and records for this station are not official NWS values.
T = Trace of Precipitation, MM = Missing Value Source: NWS Daily Summary

Daily Weather History Graph

Daily Weather History Graph

Search for Another Location

Airport or City:

Trip Planner

Search our weather history database for the weather conditions in past years. The results will help you decide how hot, cold, wet, or windy it might be!

Date:

Astronomy

Nov. 16, 2011 Rise Set
Actual Time 6:59 AM MST 4:23 PM MST
Civil Twilight 6:26 AM MST 4:56 PM MST
Nautical Twilight 5:50 AM MST 5:32 PM MST
Astronomical Twilight 5:14 AM MST 6:08 PM MST
Moon 9:43 PM MST (11/16) 11:35 AM MST (11/16)
Length of Visible Light 10h 29m
Length of Day
9h 23m
Waning Gibbous, 69% of the Moon is Illuminated
Nov 16
Waning Gibbous
Nov 18
Last Quarter
Nov 24
New
Dec 2
First Quarter
Dec 10
Full

Hourly Weather History & Observations

Time (MST) Temp. Windchill Dew Point Humidity Pressure Visibility Wind Dir Wind Speed Gust Speed Precip Events Conditions
12:51 AM 18.0 °F 6.9 °F 9.0 °F 68% 30.13 in 10.0 mi West 9.2 mph - N/A   Overcast
1:51 AM 19.0 °F 8.2 °F 9.0 °F 65% 30.14 in 10.0 mi West 9.2 mph - N/A   Overcast
2:51 AM 16.0 °F 3.6 °F 8.1 °F 71% 30.17 in 10.0 mi West 10.4 mph - N/A   Clear
3:51 AM 16.0 °F 3.6 °F 8.1 °F 71% 30.19 in 10.0 mi West 10.4 mph - N/A   Clear
4:51 AM 14.0 °F -1.4 °F 7.0 °F 74% 30.22 in 10.0 mi West 15.0 mph - N/A   Clear
5:51 AM 12.9 °F -2.2 °F 7.0 °F 77% 30.25 in 10.0 mi West 13.8 mph - N/A   Clear
6:51 AM 14.0 °F -0.2 °F 7.0 °F 74% 30.28 in 10.0 mi West 12.7 mph - N/A   Clear
7:51 AM 15.1 °F 0.5 °F 7.0 °F 70% 30.31 in 10.0 mi West 13.8 mph - N/A   Clear
8:51 AM 21.0 °F 7.1 °F 10.0 °F 63% 30.31 in 10.0 mi West 16.1 mph 21.9 mph N/A   Mostly Cloudy
9:51 AM 25.0 °F 12.6 °F 12.0 °F 58% 30.30 in 10.0 mi West 15.0 mph - N/A   Mostly Cloudy
10:51 AM 27.0 °F 15.2 °F 10.9 °F 51% 30.28 in 10.0 mi West 15.0 mph 23.0 mph N/A   Overcast
11:51 AM 30.0 °F 17.5 °F 10.9 °F 45% 30.25 in 10.0 mi West 19.6 mph 26.5 mph N/A   Scattered Clouds
12:51 PM 32.0 °F 20.1 °F 8.1 °F 37% 30.23 in 10.0 mi West 19.6 mph 31.1 mph N/A   Clear
1:51 PM 33.1 °F 21.5 °F 5.0 °F 31% 30.22 in 10.0 mi WNW 19.6 mph 29.9 mph N/A   Clear
2:51 PM 33.1 °F 22.2 °F 3.0 °F 28% 30.22 in 10.0 mi West 17.3 mph 27.6 mph N/A   Partly Cloudy
3:51 PM 30.9 °F 21.7 °F 3.0 °F 31% 30.23 in 10.0 mi West 11.5 mph 20.7 mph N/A   Clear
4:51 PM 25.0 °F 15.5 °F 1.9 °F 37% 30.25 in 10.0 mi West 9.2 mph - N/A   Partly Cloudy
5:51 PM 19.0 °F 10.0 °F 1.0 °F 46% 30.27 in 10.0 mi WSW 6.9 mph - N/A   Clear
6:51 PM 15.1 °F - -0.0 °F 51% 30.27 in 10.0 mi Calm Calm - N/A   Clear
7:51 PM 12.9 °F 6.9 °F -0.0 °F 56% 30.27 in 10.0 mi WSW 3.5 mph - N/A   Clear
8:51 PM 15.1 °F - 1.0 °F 54% 30.25 in 10.0 mi Calm Calm - N/A   Clear
9:51 PM 14.0 °F - 1.0 °F 56% 30.22 in 10.0 mi Calm Calm - N/A   Clear
10:51 PM 17.1 °F 7.6 °F 3.9 °F 56% 30.20 in 10.0 mi SW 6.9 mph - N/A   Clear
11:51 PM 12.9 °F - 3.0 °F 65% 30.18 in 10.0 mi Calm Calm - N/A   Clear